Time,TemperatureF,DewpointF,PressureIn,WindDirection,WindDirectionDegrees,WindSpeedMPH,WindSpeedGustMPH,Humidity,HourlyPrecipIn,Conditions,Clouds,dailyrainin,SoftwareType,DateUTC
2013-02-14 00:12:00,51.4,48.0,29.61,WNW,285,1.0,8.0,87,0.00,,,0.00,weatherlink.com 1.10,2013-02-14 05:12:00,
2013-02-14 00:26:00,51.1,48.0,29.61,NW,305,3.0,8.0,88,0.00,,,0.00,weatherlink.com 1.10,2013-02-14 05:26:00,
2013-02-14 00:42:00,50.9,48.0,29.61,NNW,330,4.0,9.0,88,0.00,,,0.00,weatherlink.com 1.10,2013-02-14 05:42:00,
2013-02-14 00:57:00,50.8,47.0,29.62,NW,316,7.0,11.0,87,0.00,,,0.00,weatherlink.com 1.10,2013-02-14 05:57:00,
2013-02-14 01:13:00,50.5,47.0,29.62,NW,309,6.0,9.0,87,0.00,,,0.00,weatherlink.com 1.10,2013-02-14 06:13:00,
2013-02-14 01:27:00,50.3,47.0,29.62,North,349,7.0,10.0,87,0.00,,,0.00,weatherlink.com 1.10,2013-02-14 06:27:00,
2013-02-14 01:42:00,50.1,46.0,29.62,NW,326,2.0,10.0,87,0.00,,,0.00,weatherlink.com 1.10,2013-02-14 06:42:00,
2013-02-14 01:58:00,49.9,46.0,29.62,NW,319,10.0,14.0,85,0.00,,,0.00,weatherlink.com 1.10,2013-02-14 06:58:00,
2013-02-14 02:14:00,49.5,45.0,29.63,North,352,9.0,12.0,84,0.00,,,0.00,weatherlink.com 1.10,2013-02-14 07:14:00,
2013-02-14 02:28:00,49.1,44.0,29.64,North,4,4.0,11.0,83,0.00,,,0.00,weatherlink.com 1.10,2013-02-14 07:28:00,
2013-02-14 02:44:00,48.6,44.0,29.64,NW,321,3.0,7.0,83,0.00,,,0.00,weatherlink.com 1.10,2013-02-14 07:44:00,
2013-02-14 02:59:00,48.1,43.0,29.65,NNE,12,1.0,12.0,81,0.00,,,0.00,weatherlink.com 1.10,2013-02-14 07:59:00,
2013-02-14 03:15:00,47.3,41.0,29.67,NNE,18,5.0,13.0,78,0.00,,,0.00,weatherlink.com 1.10,2013-02-14 08:15:00,
2013-02-14 03:29:00,46.6,40.0,29.68,North,359,6.0,8.0,78,0.00,,,0.00,weatherlink.com 1.10,2013-02-14 08:29:00,
2013-02-14 03:44:00,46.1,40.0,29.69,NE,49,2.0,7.0,78,0.00,,,0.00,weatherlink.com 1.10,2013-02-14 08:44:00,
2013-02-14 03:59:00,45.6,40.0,29.69,NW,324,3.0,8.0,80,0.00,,,0.00,weatherlink.com 1.10,2013-02-14 08:59:00,
2013-02-14 04:14:00,-999.0,-99.9,29.71,North,-999,-999.0,-999.0,-999,0.00,,,0.00,weatherlink.com 1.10,2013-02-14 09:14:00,
2013-02-14 04:29:00,-999.0,-99.9,29.71,North,-999,-999.0,-999.0,-999,0.00,,,0.00,weatherlink.com 1.10,2013-02-14 09:29:00,
2013-02-14 04:44:00,-999.0,-99.9,29.73,North,-999,-999.0,-999.0,-999,0.00,,,0.00,weatherlink.com 1.10,2013-02-14 09:44:00,
2013-02-14 05:00:00,-999.0,-99.9,29.73,North,-999,-999.0,-999.0,-999,0.00,,,0.00,weatherlink.com 1.10,2013-02-14 10:00:00,
2013-02-14 05:15:00,-999.0,-99.9,29.75,North,-999,-999.0,-999.0,-999,0.00,,,0.00,weatherlink.com 1.10,2013-02-14 10:15:00,
2013-02-14 05:30:00,-999.0,-99.9,29.75,North,-999,-999.0,-999.0,-999,0.00,,,0.00,weatherlink.com 1.10,2013-02-14 10:30:00,
2013-02-14 05:45:00,-999.0,-99.9,29.76,North,-999,-999.0,-999.0,-999,0.00,,,0.00,weatherlink.com 1.10,2013-02-14 10:45:00,
2013-02-14 06:00:00,-999.0,-99.9,29.76,North,-999,-999.0,-999.0,-999,0.00,,,0.00,weatherlink.com 1.10,2013-02-14 11:00:00,
2013-02-14 06:15:00,-999.0,-99.9,29.76,North,-999,-999.0,-999.0,-999,0.00,,,0.00,weatherlink.com 1.10,2013-02-14 11:15:00,
2013-02-14 06:30:00,-999.0,-99.9,29.77,North,-999,-999.0,-999.0,-999,0.00,,,0.00,weatherlink.com 1.10,2013-02-14 11:30:00,
2013-02-14 06:45:00,-999.0,-99.9,29.77,North,-999,-999.0,-999.0,-999,0.00,,,0.00,weatherlink.com 1.10,2013-02-14 11:45:00,
2013-02-14 07:00:00,-999.0,-99.9,29.77,North,-999,-999.0,-999.0,-999,0.00,,,0.00,weatherlink.com 1.10,2013-02-14 12:00:00,
2013-02-14 07:15:00,-999.0,-99.9,29.78,North,-999,-999.0,-999.0,-999,0.00,,,0.00,weatherlink.com 1.10,2013-02-14 12:15:00,
2013-02-14 07:31:00,43.0,39.0,29.79,North,5,6.0,7.0,85,0.00,,,0.00,weatherlink.com 1.10,2013-02-14 12:31:00,
2013-02-14 07:46:00,43.6,39.0,29.79,NNE,28,12.0,12.0,84,0.00,,,0.00,weatherlink.com 1.10,2013-02-14 12:46:00,
2013-02-14 08:00:00,43.9,38.0,29.80,NNE,20,13.0,17.0,80,0.00,,,0.00,weatherlink.com 1.10,2013-02-14 13:00:00,
2013-02-14 08:15:00,43.7,38.0,29.80,ENE,64,12.0,17.0,80,0.00,,,0.00,weatherlink.com 1.10,2013-02-14 13:15:00,
2013-02-14 08:31:00,43.7,38.0,29.83,NNE,20,6.0,12.0,81,0.00,,,0.00,weatherlink.com 1.10,2013-02-14 13:31:00,
2013-02-14 08:45:00,43.4,38.0,29.84,North,11,4.0,16.0,82,0.00,,,0.00,weatherlink.com 1.10,2013-02-14 13:45:00,
2013-02-14 09:00:00,43.4,38.0,29.83,ENE,57,2.0,12.0,82,0.00,,,0.00,weatherlink.com 1.10,2013-02-14 14:00:00,
2013-02-14 09:16:00,43.8,38.0,29.84,ENE,58,10.0,11.0,81,0.00,,,0.00,weatherlink.com 1.10,2013-02-14 14:16:00,
2013-02-14 09:31:00,44.5,38.0,29.83,NE,56,6.0,9.0,79,0.00,,,0.00,weatherlink.com 1.10,2013-02-14 14:31:00,
2013-02-14 09:46:00,45.2,38.0,29.83,NNE,30,6.0,11.0,76,0.00,,,0.00,weatherlink.com 1.10,2013-02-14 14:46:00,
2013-02-14 10:01:00,45.4,38.0,29.83,NE,55,6.0,11.0,75,0.00,,,0.00,weatherlink.com 1.10,2013-02-14 15:01:00,
2013-02-14 10:16:00,45.6,38.0,29.84,ENE,61,10.0,12.0,75,0.00,,,0.00,weatherlink.com 1.10,2013-02-14 15:16:00,
2013-02-14 10:31:00,45.6,38.0,29.84,NE,38,2.0,11.0,75,0.00,,,0.00,weatherlink.com 1.10,2013-02-14 15:31:00,
2013-02-14 10:46:00,46.3,38.0,29.86,NE,44,8.0,11.0,73,0.00,,,0.00,weatherlink.com 1.10,2013-02-14 15:46:00,
2013-02-14 11:01:00,47.0,38.0,29.84,NE,34,6.0,10.0,71,0.00,,,0.00,weatherlink.com 1.10,2013-02-14 16:01:00,
2013-02-14 11:16:00,47.3,38.0,29.83,NE,43,4.0,13.0,71,0.00,,,0.00,weatherlink.com 1.10,2013-02-14 16:16:00,
2013-02-14 11:31:00,48.1,38.0,29.84,ENE,77,9.0,10.0,69,0.00,,,0.00,weatherlink.com 1.10,2013-02-14 16:31:00,
2013-02-14 11:46:00,47.9,39.0,29.84,ENE,64,6.0,10.0,70,0.00,,,0.00,weatherlink.com 1.10,2013-02-14 16:46:00,
2013-02-14 12:01:00,48.0,38.0,29.84,ENE,61,4.0,8.0,68,0.00,,,0.00,weatherlink.com 1.10,2013-02-14 17:01:00,
2013-02-14 12:16:00,48.8,39.0,29.84,ESE,104,1.0,5.0,69,0.00,,,0.00,weatherlink.com 1.10,2013-02-14 17:16:00,
2013-02-14 12:46:00,49.2,39.0,29.84,ENE,71,2.0,5.0,67,0.00,,,0.00,weatherlink.com 1.10,2013-02-14 17:46:00,
2013-02-14 13:01:00,49.2,38.0,29.83,NE,43,4.0,5.0,66,0.00,,,0.00,weatherlink.com 1.10,2013-02-14 18:01:00,
2013-02-14 13:16:00,49.4,39.0,29.83,NW,321,5.0,7.0,67,0.00,,,0.00,weatherlink.com 1.10,2013-02-14 18:16:00,
2013-02-14 13:31:00,49.5,38.0,29.82,NE,38,11.0,11.0,65,0.00,,,0.00,weatherlink.com 1.10,2013-02-14 18:31:00,
2013-02-14 13:46:00,49.1,38.0,29.83,ENE,71,2.0,9.0,66,0.00,,,0.00,weatherlink.com 1.10,2013-02-14 18:46:00,
2013-02-14 14:01:00,49.7,38.0,29.83,ENE,68,5.0,9.0,64,0.00,,,0.00,weatherlink.com 1.10,2013-02-14 19:01:00,
2013-02-14 14:16:00,50.2,38.0,29.82,NE,38,0.0,6.0,64,0.00,,,0.00,weatherlink.com 1.10,2013-02-14 19:16:00,
2013-02-14 14:31:00,50.0,38.0,29.80,NE,49,5.0,6.0,64,0.00,,,0.00,weatherlink.com 1.10,2013-02-14 19:31:00,
2013-02-14 14:46:00,50.5,39.0,29.81,ENE,65,6.0,9.0,64,0.00,,,0.00,weatherlink.com 1.10,2013-02-14 19:46:00,
2013-02-14 15:01:00,50.5,38.0,29.81,East,84,1.0,7.0,63,0.00,,,0.00,weatherlink.com 1.10,2013-02-14 20:01:00,
2013-02-14 15:16:00,51.5,39.0,29.82,NNE,16,5.0,6.0,62,0.00,,,0.00,weatherlink.com 1.10,2013-02-14 20:16:00,
2013-02-14 15:31:00,53.2,39.0,29.83,SE,146,0.0,2.0,58,0.00,,,0.00,weatherlink.com 1.10,2013-02-14 20:31:00,
2013-02-14 15:46:00,54.8,39.0,29.82,ESE,113,3.0,3.0,56,0.00,,,0.00,weatherlink.com 1.10,2013-02-14 20:46:00,
2013-02-14 16:02:00,52.4,39.0,29.81,ENE,75,5.0,5.0,60,0.00,,,0.00,weatherlink.com 1.10,2013-02-14 21:02:00,
2013-02-14 16:17:00,53.4,39.0,29.80,North,349,1.0,2.0,59,0.00,,,0.00,weatherlink.com 1.10,2013-02-14 21:17:00,
2013-02-14 16:32:00,51.7,38.0,29.81,ENE,75,1.0,4.0,61,0.00,,,0.00,weatherlink.com 1.10,2013-02-14 21:32:00,
2013-02-14 16:47:00,51.3,39.0,29.83,NE,54,1.0,3.0,62,0.00,,,0.00,weatherlink.com 1.10,2013-02-14 21:47:00,
2013-02-14 17:03:00,51.2,40.0,29.83,SE,125,0.0,2.0,65,0.00,,,0.00,weatherlink.com 1.10,2013-02-14 22:03:00,
2013-02-14 17:18:00,50.6,40.0,29.83,ESE,102,0.0,1.0,66,0.00,,,0.00,weatherlink.com 1.10,2013-02-14 22:18:00,
2013-02-14 17:33:00,50.0,40.0,29.84,SE,133,1.0,1.0,68,0.00,,,0.00,weatherlink.com 1.10,2013-02-14 22:33:00,
2013-02-14 17:48:00,49.2,40.0,29.84,South,181,1.0,4.0,71,0.00,,,0.00,weatherlink.com 1.10,2013-02-14 22:48:00,
2013-02-14 18:04:00,48.0,41.0,29.85,SW,221,3.0,6.0,76,0.00,,,0.00,weatherlink.com 1.10,2013-02-14 23:04:00,
2013-02-14 18:19:00,47.7,41.0,29.84,SW,219,2.0,5.0,78,0.00,,,0.00,weatherlink.com 1.10,2013-02-14 23:19:00,
2013-02-14 18:35:00,47.1,41.0,29.84,SSW,201,1.0,3.0,79,0.00,,,0.00,weatherlink.com 1.10,2013-02-14 23:35:00,
2013-02-14 18:49:00,46.3,41.0,29.86,SSW,203,2.0,3.0,81,0.00,,,0.00,weatherlink.com 1.10,2013-02-14 23:49:00,
2013-02-14 19:05:00,45.6,41.0,29.86,SSW,209,2.0,3.0,83,0.00,,,0.00,weatherlink.com 1.10,2013-02-15 00:05:00,
2013-02-14 19:22:00,45.4,41.0,29.87,South,173,2.0,3.0,84,0.00,,,0.00,weatherlink.com 1.10,2013-02-15 00:22:00,
2013-02-14 19:36:00,44.7,41.0,29.88,SSE,166,0.0,2.0,86,0.00,,,0.00,weatherlink.com 1.10,2013-02-15 00:36:00,
2013-02-14 19:51:00,44.1,41.0,29.87,SSE,149,1.0,2.0,87,0.00,,,0.00,weatherlink.com 1.10,2013-02-15 00:51:00,
2013-02-14 20:06:00,43.4,40.0,29.86,SE,145,1.0,2.0,88,0.00,,,0.00,weatherlink.com 1.10,2013-02-15 01:06:00,
2013-02-14 20:21:00,42.7,40.0,29.87,SE,146,0.0,1.0,90,0.00,,,0.00,weatherlink.com 1.10,2013-02-15 01:21:00,
2013-02-14 20:36:00,42.2,40.0,29.89,SSE,162,0.0,1.0,91,0.00,,,0.00,weatherlink.com 1.10,2013-02-15 01:36:00,
2013-02-14 20:52:00,41.8,39.0,29.90,SSE,163,0.0,1.0,91,0.00,,,0.00,weatherlink.com 1.10,2013-02-15 01:52:00,
2013-02-14 21:07:00,41.4,39.0,29.89,SSW,197,0.0,1.0,92,0.00,,,0.00,weatherlink.com 1.10,2013-02-15 02:07:00,
2013-02-14 21:22:00,40.9,39.0,29.89,SSW,198,0.0,0.0,93,0.00,,,0.00,weatherlink.com 1.10,2013-02-15 02:22:00,
2013-02-14 21:37:00,40.9,39.0,29.90,SSW,198,0.0,0.0,93,0.00,,,0.00,weatherlink.com 1.10,2013-02-15 02:37:00,
2013-02-14 21:52:00,40.7,39.0,29.90,SSW,198,0.0,0.0,94,0.00,,,0.00,weatherlink.com 1.10,2013-02-15 02:52:00,
2013-02-14 22:07:00,40.4,39.0,29.90,SSW,198,0.0,0.0,94,0.00,,,0.00,weatherlink.com 1.10,2013-02-15 03:07:00,
2013-02-14 22:22:00,40.3,39.0,29.89,SSW,198,0.0,0.0,94,0.00,,,0.00,weatherlink.com 1.10,2013-02-15 03:22:00,
2013-02-14 22:40:00,40.1,39.0,29.88,SSW,198,0.0,0.0,95,0.00,,,0.00,weatherlink.com 1.10,2013-02-15 03:40:00,
2013-02-14 22:53:00,40.1,39.0,29.87,SE,127,0.0,1.0,95,0.00,,,0.00,weatherlink.com 1.10,2013-02-15 03:53:00,
2013-02-14 23:08:00,40.1,39.0,29.86,NE,51,0.0,1.0,95,0.00,,,0.00,weatherlink.com 1.10,2013-02-15 04:08:00,
2013-02-14 23:23:00,40.3,39.0,29.87,NE,45,0.0,0.0,95,0.00,,,0.00,weatherlink.com 1.10,2013-02-15 04:23:00,
2013-02-14 23:39:00,40.0,39.0,29.87,NNE,12,0.0,0.0,95,0.00,,,0.00,weatherlink.com 1.10,2013-02-15 04:39:00,
2013-02-14 23:54:00,39.7,38.0,29.86,SSE,152,0.0,1.0,95,0.00,,,0.00,weatherlink.com 1.10,2013-02-15 04:54:00,